Location: Unspecified
(41.5000°N, 0.0000°E)
Time: 22:28:33
(UTC+00:00)

deb Explorer IX - Pass Details

Date: 21 June 2019
Orbit: 539 x 1112 km, 38.8° (Epoch: 19 July)

Event Time Altitude Azimuth Distance (km) Brightness Sun altitude
Rises 11:54:55 0° 194° (SSW) 3,707 ? 71.9°
Reaches altitude 10° 11:58:42 10° 173° (S) 2,848 ? 71.9°
Maximum altitude 12:02:39 16° 139° (SE) 2,506 ? 71.9°
Drops below altitude 10° 12:06:43 10° 105° (ESE) 2,961 ? 71.9°
Sets 12:10:44 0° 85° (E) 3,933 ? 71.8°
